Location: Morlupo
(42.1333°N, 12.5000°E)
Time: 16:12:39
(UTC+00:00)

ATLAS CENTAUR R/B - Pass Details

Date: 18 September 2020
Orbit: 479 x 667 km, 64.7° (Epoch: 12 October)

Event Time Altitude Azimuth Distance (km) Brightness Sun altitude
Rises 17:47:31 0° 268° (W) 2,676 7.0 -7.1°
Reaches altitude 10° 17:51:33 10° 309° (NW) 1,740 4.9 -7.8°
Maximum altitude 17:52:25 11° 322° (NW) 1,693 4.6 -8.0°
Drops below altitude 10° 17:53:17 10° 335° (NNW) 1,723 4.4 -8.1°
Sets 17:57:11 0° 16° (NNE) 2,574 4.7 -8.8°
